Date,TemperatureHighF,TemperatureAvgF,TemperatureLowF,DewpointHighF,DewpointAvgF,DewpointLowF,HumidityHigh,HumidityAvg,HumidityLow,PressureMaxIn,PressureMinIn,WindSpeedMaxMPH,WindSpeedAvgMPH,GustSpeedMaxMPH,PrecipitationSumIn
2013-3-1,76,56,38,50,44,36,96,68,35,30.40,30.20,11,0,11,0.00
2013-3-2,79,60,41,53,47,39,96,65,30,30.24,30.00,9,0,9,0.00
2013-3-3,71,62,52,53,49,44,82,65,40,30.07,29.94,13,1,13,0.00
2013-3-4,72,56,44,51,46,41,95,71,41,30.10,29.97,8,0,8,0.00
2013-3-5,73,56,40,53,43,35,97,67,33,30.02,29.86,14,1,14,0.00
2013-3-6,64,53,45,48,45,38,88,74,49,30.08,29.95,13,1,13,0.00
2013-3-7,60,51,46,49,45,42,93,81,57,29.96,29.80,14,1,14,0.05
2013-3-8,53,48,44,48,46,43,97,93,77,30.03,29.75,13,2,13,0.36
2013-3-9,60,49,42,49,45,40,97,85,57,30.29,30.03,9,0,9,0.01
2013-3-10,68,53,40,50,44,39,97,76,46,30.34,30.21,10,0,10,0.00
2013-3-11,72,54,36,52,45,35,98,76,45,30.24,30.06,7,0,7,0.00
2013-3-12,78,59,40,54,48,39,98,72,36,30.13,30.01,7,0,7,0.00
2013-3-13,85,63,43,58,51,42,98,71,31,30.15,29.99,6,0,6,0.00
2013-3-14,85,65,48,60,54,46,98,72,36,30.09,30.00,7,0,7,0.00
2013-3-15,79,64,50,59,54,47,92,72,45,30.05,29.94,12,0,12,0.00
2013-3-16,79,61,46,58,50,44,97,69,34,30.03,29.92,12,1,12,0.00
2013-3-17,76,61,49,49,44,38,80,56,28,30.06,29.95,15,1,15,0.00
2013-3-18,72,58,39,49,44,36,91,62,37,30.08,29.97,9,0,9,0.00
2013-3-19,78,62,45,54,48,42,94,65,31,30.11,29.99,13,1,13,0.00
2013-3-20,72,62,55,59,53,50,89,72,52,30.09,29.99,16,1,16,0.00
2013-3-21,70,58,49,52,48,40,94,72,41,30.02,29.91,12,1,12,0.00
2013-3-22,68,53,41,47,37,27,81,56,25,30.03,29.93,15,1,15,0.00
2013-3-23,70,52,35,44,37,30,86,58,33,30.11,29.99,9,0,9,0.00
2013-3-24,76,56,36,48,41,34,95,61,28,30.07,29.90,9,0,9,0.00
2013-3-25,76,59,41,52,45,38,94,65,35,29.97,29.84,6,0,6,0.00
2013-3-26,78,60,45,51,46,42,93,64,29,29.94,29.84,11,0,11,0.00
2013-3-27,79,63,48,54,50,45,92,66,34,29.96,29.86,10,0,10,0.00
2013-3-28,72,60,47,57,52,45,95,75,53,30.05,29.96,7,0,7,0.00
2013-3-29,80,63,45,59,51,43,97,70,31,30.07,29.94,9,0,9,0.00
2013-3-30,85,67,53,59,52,48,93,63,31,30.01,29.86,16,1,16,0.02
2013-3-31,75,64,55,60,54,46,97,73,39,30.06,29.93,15,1,15,0.16